Date String (YYYY-MM-DD hh:mm:ss) UTC,Instrument flags,Ambient pressure (hPa),Sample flow (lpm),Bypass flow (lpm),Sample temperature (°C),Ambient temperature (°C),ASC tube jacket temperature (°C),LED temperature (°C),Box temperature (°C),Sample RH (%),Span deviation,Mass concentration (μg/m³),Mass concentration (μg/m³),Mass concentration (μg/m³)
DateTimeUTC,F1_M11,P_M11,Q1_M11,Q2_M11,T1_M11,T2_M11,T3_M11,T4_M11,T5_M11,U1_M11,ZSPAN_M11,X0_M11,X2_M11,X1_M11
2022-10-01 04:00:00,,0827.1,5.00,0.00,30.1,28.8,00.0,38.8,32.0,23.9,0000.0,0002.90,0001.84,0001.28
2022-10-01 04:01:00,,0827.0,5.01,0.00,30.2,28.8,00.0,38.9,32.0,22.8,0000.0,0002.65,0001.69,0001.19
2022-10-01 04:02:00,,0826.9,5.00,0.00,30.2,28.9,00.0,38.9,32.0,22.8,0000.0,0002.53,0001.58,0001.08
2022-10-01 04:03:00,,0826.8,5.00,0.00,30.2,28.9,00.0,38.9,32.0,21.9,0000.0,0002.47,0001.45,0000.97
2022-10-01 04:04:00,,0826.9,5.01,0.00,30.2,28.9,00.0,38.9,32.0,21.2,0000.0,0002.31,0001.32,0000.84
2022-10-01 04:05:00,,0827.0,5.01,0.00,30.2,28.9,00.0,38.9,32.0,21.5,0000.0,0001.97,0001.14,0000.72
2022-10-01 04:06:00,,0826.8,4.99,0.00,30.2,28.9,00.0,38.9,32.1,22.1,0000.0,0001.76,0001.03,0000.65
2022-10-01 04:07:00,,0826.9,5.00,0.00,30.2,28.9,00.0,38.9,32.1,21.5,0000.0,0001.59,0000.93,0000.57
2022-10-01 04:08:00,,0826.9,5.01,0.00,30.2,28.9,00.0,38.9,32.1,21.3,0000.0,0001.44,0000.81,0000.52
2022-10-01 04:09:00,,0827.0,5.00,0.00,30.2,28.9,00.0,38.9,32.1,22.6,0000.0,0001.45,0000.78,0000.51
2022-10-01 04:10:00,,0827.2,4.98,0.00,30.2,28.9,00.0,38.9,32.1,23.9,0000.0,0001.60,0000.80,0000.49
2022-10-01 04:11:00,,0827.2,5.00,0.00,30.2,28.9,00.0,38.9,32.1,24.7,0000.0,0001.67,0000.83,0000.50
2022-10-01 04:12:00,,0827.0,5.00,0.00,30.2,28.9,00.0,39.0,32.1,25.7,0000.0,0001.82,0000.92,0000.55
2022-10-01 04:13:00,,0826.9,5.01,0.00,30.3,28.9,00.0,39.0,32.1,26.7,0000.0,0001.86,0000.99,0000.64
2022-10-01 04:14:00,,0826.9,4.99,0.00,30.3,28.9,00.0,39.0,32.1,27.7,0000.0,0002.07,0001.15,0000.77
2022-10-01 04:15:00,,0827.1,5.01,0.00,30.3,28.9,00.0,39.0,32.1,28.3,0000.0,0002.36,0001.33,0000.94
2022-10-01 04:16:00,,0827.0,5.00,0.00,30.3,28.9,00.0,39.0,32.1,28.5,0000.0,0002.80,0001.55,0001.12
2022-10-01 04:17:00,,0827.0,4.99,0.00,30.3,28.9,00.0,39.0,32.1,28.7,0000.0,0003.25,0001.81,0001.31
2022-10-01 04:18:00,,0827.0,5.00,0.00,30.3,28.9,00.0,39.0,32.1,29.3,0000.0,0003.60,0002.04,0001.49
2022-10-01 04:19:00,,0827.1,5.00,0.00,30.3,28.9,00.0,39.0,32.1,28.0,0000.0,0003.84,0002.22,0001.61
2022-10-01 04:20:00,,0827.0,5.01,0.00,30.3,28.9,00.0,39.0,32.1,27.8,0000.0,0004.04,0002.38,0001.73
2022-10-01 04:21:00,,0827.1,5.00,0.00,30.3,28.9,00.0,39.0,32.1,28.1,0000.0,0004.26,0002.52,0001.86
2022-10-01 04:22:00,,0827.2,5.00,0.00,30.3,28.9,00.0,39.0,32.1,28.1,0000.0,0004.46,0002.63,0001.96
2022-10-01 04:23:00,,0827.0,5.01,0.00,30.3,28.9,00.0,39.0,32.1,27.6,0000.0,0004.63,0002.69,0002.01
2022-10-01 04:24:00,,0827.1,5.01,0.00,30.3,29.0,00.0,39.0,32.1,26.9,0000.0,0004.89,0002.74,0002.00
2022-10-01 04:25:00,,0827.1,5.00,0.00,30.3,28.9,00.0,39.0,32.2,27.1,0000.0,0004.83,0002.71,0001.98
2022-10-01 04:26:00,,0827.1,4.99,0.00,30.3,28.9,00.0,39.1,32.2,25.8,0000.0,0004.67,0002.60,0001.87
2022-10-01 04:27:00,,0827.0,5.01,0.00,30.3,29.0,00.0,39.1,32.2,24.8,0000.0,0004.40,0002.47,0001.71
2022-10-01 04:28:00,,0827.0,5.01,0.00,30.3,29.0,00.0,39.1,32.2,24.9,0000.0,0004.25,0002.34,0001.56
2022-10-01 04:29:00,,0827.0,4.99,0.00,30.4,29.0,00.0,39.1,32.2,25.1,0000.0,0006.05,0002.21,0001.43
2022-10-01 04:30:00,,0827.0,4.99,0.00,30.4,29.0,00.0,39.1,32.2,24.9,0000.0,0006.81,0002.12,0001.36
2022-10-01 04:31:00,,0827.0,5.01,0.00,30.4,29.0,00.0,39.1,32.2,25.1,0000.0,0006.92,0002.06,0001.29
2022-10-01 04:32:00,,0827.0,5.00,0.00,30.4,29.0,00.0,39.1,32.2,25.3,0000.0,0006.84,0001.93,0001.19
2022-10-01 04:33:00,,0827.2,4.99,0.00,30.4,29.0,00.0,39.1,32.2,25.3,0000.0,0007.27,0001.88,0001.10
2022-10-01 04:34:00,,0827.1,5.00,0.00,30.4,29.0,00.0,39.1,32.2,25.3,0000.0,0007.50,0001.89,0001.04
2022-10-01 04:35:00,,0827.2,5.00,0.00,30.4,29.0,00.0,39.1,32.2,25.5,0000.0,0007.60,0001.89,0001.03
2022-10-01 04:36:00,,0827.1,5.00,0.00,30.4,29.0,00.0,39.1,32.2,25.7,0000.0,0007.61,0001.89,0001.00
2022-10-01 04:37:00,,0827.0,4.99,0.00,30.4,29.1,00.0,39.1,32.2,25.8,0000.0,0007.65,0001.92,0000.99
2022-10-01 04:38:00,,0827.2,5.01,0.00,30.4,29.1,00.0,39.1,32.2,26.1,0000.0,0007.73,0001.92,0001.02
2022-10-01 04:39:00,,0827.0,5.00,0.00,30.4,29.1,00.0,39.1,32.2,27.0,0000.0,0007.78,0001.92,0001.07
2022-10-01 04:40:00,,0827.1,4.99,0.00,30.4,29.1,00.0,39.1,32.3,27.3,0000.0,0007.04,0002.00,0001.14
2022-10-01 04:41:00,,0827.0,5.00,0.00,30.4,29.1,00.0,39.2,32.3,27.0,0000.0,0006.00,0002.05,0001.18
2022-10-01 04:42:00,,0826.9,5.01,0.00,30.4,29.1,00.0,39.2,32.3,26.9,0000.0,0005.87,0002.10,0001.24
2022-10-01 04:43:00,,0827.0,4.98,0.00,30.4,29.0,00.0,39.2,32.3,27.2,0000.0,0005.86,0002.19,0001.31
2022-10-01 04:44:00,,0827.0,5.00,0.00,30.4,29.0,00.0,39.2,32.3,27.4,0000.0,0005.29,0002.25,0001.39
2022-10-01 04:45:00,,0827.0,5.00,0.00,30.4,28.9,00.0,39.2,32.2,27.4,0000.0,0004.86,0002.23,0001.45
2022-10-01 04:46:00,,0826.9,5.00,0.00,30.4,29.0,00.0,39.2,32.2,27.2,0000.0,0004.55,0002.24,0001.50
2022-10-01 04:47:00,,0827.0,5.01,0.00,30.4,29.0,00.0,39.2,32.2,27.1,0000.0,0004.65,0002.27,0001.54
2022-10-01 04:48:00,,0826.8,5.00,0.00,30.4,29.0,00.0,39.2,32.3,27.0,0000.0,0004.58,0002.28,0001.57
2022-10-01 04:49:00,,0826.8,5.00,0.00,30.4,29.0,00.0,39.2,32.3,26.8,0000.0,0005.93,0002.31,0001.59
2022-10-01 04:50:00,,0826.8,4.99,0.00,30.4,29.0,00.0,39.2,32.3,26.9,0000.0,0006.93,0002.34,0001.59
2022-10-01 04:51:00,,0826.8,5.01,0.00,30.5,29.1,00.0,39.2,32.3,26.7,0000.0,0006.71,0002.32,0001.58
2022-10-01 04:52:00,,0827.0,5.01,0.00,30.5,29.1,00.0,39.2,32.3,26.4,0000.0,0006.69,0002.31,0001.58
2022-10-01 04:53:00,,0826.9,4.99,0.00,30.4,29.0,00.0,39.2,32.3,26.6,0000.0,0006.55,0002.27,0001.57
2022-10-01 04:54:00,,0826.9,5.00,0.00,30.4,28.9,00.0,39.2,32.2,26.8,0000.0,0006.54,0002.25,0001.56
2022-10-01 04:55:00,,0826.9,5.00,0.00,30.4,28.8,00.0,39.2,32.2,27.1,0000.0,0006.66,0002.24,0001.54
2022-10-01 04:56:00,,0826.9,5.00,0.00,30.4,28.8,00.0,39.2,32.2,27.4,0000.0,0006.97,0002.27,0001.53
2022-10-01 04:57:00,,0826.9,5.00,0.00,30.4,28.7,00.0,39.2,32.1,27.2,0000.0,0007.11,0002.24,0001.52
2022-10-01 04:58:00,,0827.0,5.01,0.00,30.4,28.6,00.0,39.2,32.1,26.6,0000.0,0006.97,0002.19,0001.49
2022-10-01 04:59:00,,0826.9,4.99,0.00,30.4,28.7,00.0,39.2,32.1,26.2,0000.0,0006.88,0002.11,0001.43
